This demonstration page uses our WeatherBlox Daily Observations layout. Learn more.

Left ArrowRight Arrow

Hourly Observations for January 16, 2016

Temp ( °F °C ) Dew Point ( °F °C ) Humidity (%) Winds ( mph kmh ) Pressure ( in mb ) Visibility ( mi km ) Precip ( " mm )
12:53 am 00:53 Cloudy 23 -5 19 -7.2 85 85 NE 3 6 30.02 1017 10 16 0.00 0.00
1:53 am 01:53 Cloudy 24 -4.4 19 -7.2 81 81 NE 5 7 30.02 1017 10 16 0.00 0.00
2:04 am 02:04 Cloudy 25 -4 19 -7 80 80 NNE 3 6 30.06 1018 10 16 0.00 0.00
2:53 am 02:53 Cloudy 24 -4.4 18 -7.8 77 77 NNE 7 11 30.02 1017 10 16 0.00 0.00
3:20 am 03:20 Partly Cloudy 22 -5.6 17 -8.3 82 82 NNE 6 9 30.12 1020 10 16 0.00 0.00
3:53 am 03:53 Clear 21 -6.1 16 -8.9 81 81 N 5 7 30.03 1017 10 16 0.00 0.00
4:53 am 04:53 Mostly Cloudy 20 -6.7 16 -8.9 85 85 WNW 3 6 30.05 1018 10 16 0.00 0.00
5:53 am 05:53 Mostly Clear 20 -6.7 16 -8.9 85 85 WSW 3 6 30.06 1018 10 16 0.00 0.00
6:53 am 06:53 Cloudy 20 -6.7 16 -8.9 85 85 WSW 3 6 30.08 1019 10 16 0.00 0.00
7:53 am 07:53 Clear 20 -6.7 16 -8.9 85 85 WSW 5 7 30.09 1019 10 16 0.00 0.00
8:53 am 08:53 Sunny 23 -5 19 -7.2 85 85 WSW 6 9 30.09 1019 8 13 0.00 0.00
9:53 am 09:53 Sunny 26 -3.3 22 -5.6 84 84 SW 6 9 30.09 1019 9 14 0.00 0.00
10:36 am 10:36 Cloudy 28 -2.2 23 -5 81 81 SW 7 11 30.15 1021 10 16 0.00 0.00
10:53 am 10:53 Cloudy 28 -2.2 23 -5 81 81 SW 9 15 30.09 1019 10 16 0.00 0.00
11:09 am 11:09 Cloudy 29 -1.7 24 -4.4 82 82 SW 8 13 30.15 1021 9 14 0.00 0.00
11:16 am 11:16 Cloudy 30 -1 25 -4 80 80 SW 8 13 30.12 1020 9 14 0.00 0.00
11:48 am 11:48 Cloudy 30 -1 25 -4 80 80 SW 7 11 30.12 1020 10 16 0.00 0.00
11:53 am 11:53 Cloudy 30 -1.1 25 -3.9 82 82 SW 8 13 30.09 1019 9 14 0.00 0.00
12:53 pm 12:53 Cloudy with Light Snow 32 0 26 -3.3 79 79 WSW 8 13 30.05 1018 7 11 0.00 0.03
1:53 pm 13:53 Cloudy with Light Snow 33 0.6 27 -2.8 78 78 WNW 8 13 30.03 1017 8 13 0.00 0.03
2:53 pm 14:53 Cloudy 28 -2.2 23 -5 81 81 N 20 31 30.04 1017 10 16 0.00 0.03
3:14 pm 15:14 Cloudy 28 -2 21 -6 74 74 NNE 15 24 30.09 1019 10 16 0.00 0.00
3:53 pm 15:53 Cloudy 25 -3.9 19 -7.2 78 78 NNE 15 24 30.06 1018 10 16 0.00 0.00
4:53 pm 16:53 Cloudy 22 -5.6 15 -9.4 75 75 NNE 15 24 30.08 1019 10 16 0.00 0.00
5:41 pm 17:41 Cloudy 21 -6.1 14 -10 74 74 NNE 18 30 30.15 1021 10 16 0.00 0.00
5:53 pm 17:53 Cloudy 20 -6.7 13 -10.6 74 74 NNE 17 28 30.11 1020 10 16 0.00 0.00
6:53 pm 18:53 Cloudy 18 -7.8 11 -11.7 74 74 NE 13 20 30.10 1019 10 16 0.00 0.00
7:04 pm 19:04 Mostly Cloudy 18 -8 10 -12 73 73 NE 17 28 30.18 1022 10 16 0.00 0.00
7:53 pm 19:53 Mostly Clear 16 -8.9 10 -12.2 77 77 NE 14 22 30.12 1020 10 16 0.00 0.00
8:18 pm 20:18 Mostly Cloudy 16 -9 9 -13 73 73 NE 12 19 30.21 1023 10 16 0.00 0.00
8:53 pm 20:53 Cloudy 15 -9.4 9 -12.8 77 77 NE 12 19 30.14 1021 10 16 0.00 0.00
9:53 pm 21:53 Cloudy 14 -10 8 -13.3 77 77 NNE 13 20 30.16 1022 10 16 0.00 0.00
10:53 pm 22:53 Cloudy with Light Snow 13 -10.6 7 -13.9 77 77 NNE 13 20 30.17 1022 4 6 0.00 0.03
11:22 pm 23:22 Cloudy 12 -11.1 6 -14.4 77 77 NE 14 22 30.30 1026 10 16 0.00 0.03
11:53 pm 23:53 Cloudy with Light Snow 11 -11.7 6 -14.4 81 81 NNE 13 20 30.20 1023 9 14 0.00 0.03

Powered by AerisWeather